This demonstration page uses our WeatherBlox Daily Observations layout. Learn more.

Left ArrowRight Arrow

36.19886, -115.1175

Hourly Observations for March 10, 2017

Temp ( °F °C ) Dew Point ( °F °C ) Humidity (%) Winds ( mph kmh ) Pressure ( in mb ) Visibility ( mi km ) Precip ( " mm )
12:53 am 00:53 Clear 57 13.9 34 1.1 42 42 N 5 7 30.13 1020 10 16 N/A
1:53 am 01:53 Clear 56 13.3 35 1.7 46 46 NNW 5 7 30.12 1020 10 16 N/A
2:53 am 02:53 Clear 56 13.3 34 1.1 44 44 WNW 7 11 30.11 1020 10 16 N/A
3:53 am 03:53 Clear 54 12.2 34 1.1 47 47 N N/A 30.12 1020 10 16 N/A
4:53 am 04:53 Clear 54 12.2 34 1.1 47 47 WSW 3 6 30.12 1020 10 16 N/A
5:53 am 05:53 Clear 53 11.7 34 1.1 48 48 WNW 5 7 30.14 1021 10 16 N/A
6:53 am 06:53 Sunny 55 12.8 34 1.1 45 45 WNW 6 9 30.16 1021 10 16 N/A
7:53 am 07:53 Sunny 63 17.2 32 undefined 31 31 N N/A 30.17 1022 10 16 N/A
8:53 am 08:53 Sunny 65 18.3 30 -1.1 27 27 ESE 3 6 30.18 1022 10 16 N/A
9:53 am 09:53 Sunny 70 21.1 30 -1.1 23 23 N N/A 30.15 1021 10 16 N/A
10:53 am 10:53 Sunny 72 22.2 29 -1.7 20 20 N N/A 30.14 1021 10 16 N/A
11:53 am 11:53 Sunny 74 23.3 28 -2.2 18 18 N N/A 30.11 1020 10 16 N/A
12:53 pm 12:53 Sunny 74 23.3 28 -2.2 18 18 SSE 5 7 30.07 1018 10 16 N/A
1:53 pm 13:53 Sunny 75 23.9 27 -2.8 17 17 N N/A 30.04 1017 10 16 N/A
2:53 pm 14:53 Sunny 76 24.4 27 -2.8 16 16 N N/A 30.03 1017 10 16 N/A
3:53 pm 15:53 Sunny 77 25 28 -2.2 16 16 N N/A 30.02 1017 10 16 N/A
4:53 pm 16:53 Sunny 77 25 28 -2.2 16 16 N N/A 30.01 1016 10 16 N/A
5:53 pm 17:53 Clear 73 22.8 29 -1.7 19 19 ESE 3 6 30.03 1017 10 16 N/A
6:53 pm 18:53 Clear 72 22.2 30 -1.1 21 21 N N/A 30.04 1017 10 16 N/A
7:53 pm 19:53 Clear 69 20.6 34 1.1 27 27 NW 3 6 30.03 1017 10 16 N/A
8:53 pm 20:53 Clear 68 20 35 1.7 30 30 N 6 9 30.04 1017 10 16 N/A
9:53 pm 21:53 Clear 66 18.9 37 2.8 34 34 WNW 8 13 30.03 1017 10 16 N/A
10:53 pm 22:53 Clear 66 18.9 35 1.7 32 32 N N/A 30.02 1017 10 16 N/A
11:53 pm 23:53 Clear 66 18.9 34 1.1 30 30 WNW 7 11 30.01 1016 10 16 N/A

Powered by AerisWeather